�������l�o���
Date,Time,MP-1(��Sv/h),MP-2(��Sv/h),MP-3(��Sv/h),MP-4(��Sv/h),MP-5(��Sv/h),MP-6(��Sv/h),MP-7(��Sv/h),MP-8(��Sv/h),����,����(m/s),���J
2021/06/11,00:00,0.632,0.938,0.593,1.141,0.822,0.375,0.650,0.607,��,6.0,��
2021/06/11,00:10,0.631,0.939,0.593,1.143,0.824,0.376,0.650,0.608,��,6.2,��
2021/06/11,00:20,0.631,0.940,0.593,1.143,0.822,0.374,0.650,0.606,��,4.9,��
2021/06/11,00:30,0.631,0.938,0.592,1.143,0.821,0.375,0.651,0.606,��,5.2,��
2021/06/11,00:40,0.632,0.939,0.591,1.141,0.822,0.375,0.649,0.606,��,4.8,��
2021/06/11,00:50,0.630,0.942,0.591,1.144,0.821,0.375,0.650,0.606,��쐼,5.0,��
2021/06/11,01:00,0.631,0.941,0.593,1.143,0.822,0.374,0.649,0.606,��쐼,5.3,��
2021/06/11,01:10,0.630,0.940,0.590,1.142,0.823,0.376,0.650,0.605,��쐼,5.5,��
2021/06/11,01:20,0.630,0.941,0.591,1.141,0.822,0.374,0.651,0.606,��쐼,4.7,��
2021/06/11,01:30,0.631,0.941,0.592,1.142,0.821,0.375,0.648,0.605,��쐼,3.5,��
2021/06/11,01:40,0.632,0.940,0.592,1.142,0.822,0.376,0.649,0.606,���쐼,1.5,��
2021/06/11,01:50,0.632,0.941,0.593,1.142,0.821,0.374,0.649,0.606,�k�k��,0.9,��
2021/06/11,02:00,0.629,0.941,0.592,1.142,0.821,0.376,0.650,0.607,�k�k��,1.7,��
2021/06/11,02:10,0.631,0.942,0.590,1.144,0.822,0.376,0.649,0.607,�k�k��,2.2,��
2021/06/11,02:20,0.629,0.940,0.591,1.142,0.823,0.376,0.650,0.607,�k�k��,2.2,��
2021/06/11,02:30,0.631,0.941,0.592,1.142,0.820,0.374,0.652,0.607,�k,2.2,��
2021/06/11,02:40,0.631,0.941,0.591,1.143,0.822,0.374,0.649,0.606,�k,2.2,��
2021/06/11,02:50,0.632,0.940,0.592,1.142,0.823,0.373,0.649,0.608,�k�k��,2.6,��
2021/06/11,03:00,0.631,0.939,0.591,1.145,0.820,0.375,0.651,0.606,�k�k��,2.6,��
2021/06/11,03:10,0.631,0.941,0.592,1.144,0.821,0.374,0.648,0.606,�k��,2.2,��
2021/06/11,03:20,0.630,0.939,0.591,1.142,0.822,0.374,0.650,0.606,�k�k��,1.5,��
2021/06/11,03:30,0.632,0.939,0.590,1.141,0.819,0.374,0.650,0.605,�k��,0.6,��
2021/06/11,03:40,0.629,0.940,0.591,1.141,0.820,0.376,0.649,0.607,���k��,1.2,��
2021/06/11,03:50,0.630,0.937,0.591,1.143,0.822,0.375,0.650,0.607,��,0.6,��
2021/06/11,04:00,0.629,0.937,0.592,1.144,0.821,0.374,0.650,0.606,��,0.9,��
2021/06/11,04:10,0.629,0.937,0.590,1.141,0.821,0.375,0.651,0.607,���k��,0.9,��
2021/06/11,04:20,0.631,0.939,0.592,1.142,0.820,0.375,0.648,0.607,���k��,0.9,��
2021/06/11,04:30,0.630,0.938,0.592,1.142,0.822,0.374,0.648,0.607,-,CALM,��
2021/06/11,04:40,0.630,0.938,0.589,1.143,0.820,0.375,0.650,0.605,��,0.8,��
2021/06/11,04:50,0.629,0.937,0.592,1.140,0.822,0.375,0.649,0.607,�쐼,1.1,��
2021/06/11,05:00,0.627,0.937,0.592,1.140,0.821,0.375,0.650,0.606,�쐼,1.2,��
2021/06/11,05:10,0.631,0.939,0.589,1.141,0.820,0.375,0.649,0.607,��쐼,0.6,��
2021/06/11,05:20,0.629,0.939,0.592,1.144,0.821,0.374,0.649,0.607,��,0.9,��
2021/06/11,05:30,0.629,0.938,0.592,1.142,0.820,0.374,0.649,0.606,��쓌,1.1,��
2021/06/11,05:40,0.628,0.939,0.591,1.141,0.824,0.375,0.651,0.605,��,0.9,��
2021/06/11,05:50,0.629,0.937,0.592,1.140,0.820,0.374,0.649,0.609,��,0.8,��
2021/06/11,06:00,0.630,0.939,0.592,1.143,0.822,0.375,0.649,0.606,-,CALM,��
2021/06/11,06:10,0.631,0.939,0.592,1.140,0.822,0.375,0.649,0.608,-,CALM,��
2021/06/11,06:20,0.631,0.939,0.592,1.141,0.821,0.375,0.649,0.606,-,CALM,��
2021/06/11,06:30,0.630,0.940,0.593,1.141,0.819,0.373,0.649,0.606,-,CALM,��
2021/06/11,06:40,0.629,0.939,0.594,1.140,0.822,0.374,0.650,0.607,�k��,0.6,��
2021/06/11,06:50,0.627,0.939,0.594,1.142,0.820,0.374,0.650,0.608,�k�k��,1.2,��
2021/06/11,07:00,0.632,0.939,0.593,1.143,0.819,0.373,0.650,0.609,�k�k��,1.2,��
2021/06/11,07:10,0.630,0.936,0.591,1.141,0.821,0.372,0.650,0.606,�k,1.4,��
2021/06/11,07:20,0.630,0.937,0.590,1.142,0.819,0.372,0.648,0.606,�k��,0.6,��
2021/06/11,07:30,0.629,0.937,0.591,1.141,0.820,0.372,0.647,0.607,�k,0.9,��
2021/06/11,07:40,0.628,0.938,0.589,1.141,0.819,0.372,0.648,0.604,�k,1.1,��
2021/06/11,07:50,0.628,0.936,0.590,1.141,0.820,0.372,0.649,0.606,�k��,0.9,��
2021/06/11,08:00,0.628,0.937,0.589,1.144,0.820,0.372,0.648,0.605,�k��,1.1,��
2021/06/11,08:10,0.627,0.934,0.591,1.144,0.818,0.373,0.647,0.605,��,1.5,��
2021/06/11,08:20,0.627,0.935,0.590,1.142,0.820,0.374,0.648,0.604,�쓌,1.5,��
2021/06/11,08:30,0.629,0.937,0.592,1.142,0.818,0.373,0.648,0.604,�쓌,1.2,��
2021/06/11,08:40,0.630,0.937,0.591,1.143,0.820,0.373,0.647,0.606,��쓌,1.9,��
2021/06/11,08:50,0.629,0.937,0.590,1.144,0.821,0.372,0.649,0.604,�쓌,1.7,��
2021/06/11,09:00,0.629,0.938,0.591,1.142,0.821,0.373,0.650,0.606,��쓌,2.0,��
2021/06/11,09:10,0.630,0.939,0.590,1.141,0.819,0.373,0.649,0.604,�쓌,2.6,��
2021/06/11,09:20,0.629,0.938,0.591,1.143,0.820,0.373,0.649,0.606,��쓌,3.4,��
2021/06/11,09:30,0.630,0.939,0.590,1.144,0.820,0.373,0.648,0.606,��쓌,3.8,��
2021/06/11,09:40,0.629,0.938,0.590,1.144,0.818,0.372,0.650,0.605,��쓌,3.5,��
2021/06/11,09:50,0.628,0.938,0.590,1.142,0.820,0.373,0.649,0.604,��,3.6,��
2021/06/11,10:00,0.631,0.939,0.591,1.143,0.820,0.372,0.648,0.607,��쓌,3.7,��
2021/06/11,10:10,0.630,0.939,0.592,1.143,0.820,0.373,0.649,0.605,��쓌,5.0,��
2021/06/11,10:20,0.631,0.940,0.589,1.145,0.820,0.374,0.650,0.604,��쓌,8.3,��
2021/06/11,10:30,0.630,0.936,0.589,1.142,0.821,0.373,0.649,0.605,��,8.4,��
2021/06/11,10:40,0.629,0.938,0.591,1.144,0.822,0.373,0.649,0.606,��,7.7,��
2021/06/11,10:50,0.631,0.941,0.590,1.143,0.821,0.374,0.651,0.605,��쓌,9.7,��
2021/06/11,11:00,0.632,0.939,0.592,1.143,0.823,0.372,0.649,0.607,��쓌,11.8,��
2021/06/11,11:10,0.630,0.941,0.590,1.141,0.822,0.374,0.649,0.607,��,11.3,��
2021/06/11,11:20,0.631,0.940,0.592,1.138,0.823,0.373,0.652,0.605,��쓌,12.7,��
2021/06/11,11:30,0.631,0.940,0.592,1.140,0.822,0.371,0.649,0.606,��쓌,12.5,��
2021/06/11,11:40,0.631,0.940,0.591,1.141,0.821,0.374,0.649,0.603,��쓌,14.4,��
2021/06/11,11:50,0.630,0.940,0.592,1.142,0.819,0.374,0.648,0.605,��쓌,15.0,��
2021/06/11,12:00,0.631,0.942,0.592,1.141,0.816,0.374,0.649,0.608,��쓌,14.6,��
2021/06/11,12:10,0.633,0.942,0.593,1.142,0.818,0.376,0.648,0.607,��쓌,13.1,��
2021/06/11,12:20,0.632,0.941,0.594,1.142,0.825,0.373,0.650,0.606,��쓌,13.9,��
2021/06/11,12:30,0.631,0.945,0.592,1.143,0.824,0.373,0.651,0.605,��쓌,14.9,��
2021/06/11,12:40,0.631,0.940,0.593,1.142,0.825,0.374,0.650,0.606,��쓌,14.1,��
2021/06/11,12:50,0.633,0.940,0.592,1.142,0.821,0.375,0.649,0.604,��쓌,15.2,��
2021/06/11,13:00,0.632,0.942,0.593,1.142,0.826,0.376,0.647,0.607,��쓌,15.7,��
2021/06/11,13:10,0.633,0.943,0.592,1.144,0.825,0.375,0.647,0.605,��쓌,13.9,��
2021/06/11,13:20,0.631,0.940,0.591,1.141,0.824,0.377,0.650,0.605,��쓌,15.5,��
2021/06/11,13:30,0.633,0.940,0.591,1.142,0.823,0.376,0.649,0.606,��쓌,18.5,��
2021/06/11,13:40,0.633,0.941,0.593,1.144,0.826,0.376,0.650,0.605,��쓌,14.7,��
2021/06/11,13:50,0.632,0.942,0.594,1.144,0.824,0.375,0.651,0.607,��쓌,14.7,��
2021/06/11,14:00,0.632,0.942,0.592,1.145,0.825,0.377,0.650,0.604,��쓌,15.5,��
2021/06/11,14:10,0.631,0.943,0.592,1.142,0.826,0.376,0.650,0.605,��쓌,16.3,��
2021/06/11,14:20,0.632,0.942,0.592,1.146,0.825,0.377,0.650,0.606,��쓌,15.8,��
2021/06/11,14:30,0.630,0.943,0.594,1.145,0.826,0.377,0.650,0.606,��쓌,13.5,��
2021/06/11,14:40,0.630,0.941,0.593,1.143,0.825,0.378,0.650,0.606,��쓌,13.8,��
2021/06/11,14:50,0.632,0.943,0.592,1.145,0.825,0.376,0.649,0.606,��,11.7,��
2021/06/11,15:00,0.632,0.943,0.593,1.146,0.825,0.376,0.649,0.605,��쓌,14.1,��
2021/06/11,15:10,0.632,0.943,0.593,1.145,0.826,0.377,0.650,0.608,��쓌,12.2,��
2021/06/11,15:20,0.635,0.942,0.592,1.145,0.826,0.376,0.650,0.605,��쓌,12.1,��
2021/06/11,15:30,0.632,0.942,0.592,1.145,0.824,0.377,0.650,0.608,��,13.9,��
2021/06/11,15:40,0.632,0.942,0.592,1.144,0.825,0.376,0.648,0.606,��쓌,14.7,��
2021/06/11,15:50,0.633,0.945,0.594,1.143,0.824,0.378,0.650,0.606,��쓌,13.9,��
2021/06/11,16:00,0.633,0.943,0.592,1.145,0.823,0.377,0.650,0.605,��,14.1,��
2021/06/11,16:10,0.633,0.941,0.592,1.145,0.828,0.377,0.649,0.606,��,13.3,��
2021/06/11,16:20,0.633,0.942,0.592,1.147,0.824,0.376,0.651,0.606,��쓌,12.0,��
2021/06/11,16:30,0.634,0.942,0.595,1.147,0.826,0.376,0.650,0.605,��쓌,11.8,��
2021/06/11,16:40,0.635,0.943,0.594,1.145,0.826,0.377,0.649,0.606,��,12.8,��
2021/06/11,16:50,0.632,0.944,0.592,1.147,0.825,0.376,0.649,0.606,��,11.1,��
2021/06/11,17:00,0.634,0.943,0.593,1.147,0.824,0.377,0.648,0.607,��,10.7,��
2021/06/11,17:10,0.635,0.943,0.589,1.144,0.825,0.376,0.649,0.607,��,10.6,��
2021/06/11,17:20,0.635,0.942,0.592,1.145,0.825,0.377,0.649,0.606,��,11.6,��
2021/06/11,17:30,0.634,0.943,0.592,1.147,0.825,0.376,0.649,0.605,��,11.3,��
2021/06/11,17:40,0.635,0.943,0.590,1.146,0.827,0.376,0.648,0.607,��,10.5,��
2021/06/11,17:50,0.634,0.944,0.591,1.148,0.825,0.377,0.649,0.606,��,9.1,��
2021/06/11,18:00,0.634,0.940,0.593,1.147,0.826,0.376,0.650,0.608,��,10.2,��
2021/06/11,18:10,0.633,0.943,0.592,1.150,0.823,0.376,0.650,0.607,��,9.5,��
2021/06/11,18:20,0.633,0.943,0.593,1.148,0.824,0.376,0.651,0.609,��,8.5,��
2021/06/11,18:30,0.634,0.941,0.593,1.149,0.827,0.375,0.651,0.608,��,8.3,��
2021/06/11,18:40,0.633,0.944,0.592,1.148,0.826,0.374,0.651,0.609,��,10.2,��
2021/06/11,18:50,0.633,0.944,0.590,1.148,0.827,0.376,0.650,0.608,��,10.0,��
2021/06/11,19:00,0.633,0.944,0.592,1.151,0.826,0.376,0.651,0.609,��,7.6,��
2021/06/11,19:10,0.634,0.944,0.594,1.149,0.826,0.377,0.652,0.609,��,8.9,��
2021/06/11,19:20,0.633,0.944,0.594,1.149,0.826,0.376,0.652,0.608,��,9.5,��
2021/06/11,19:30,0.633,0.946,0.595,1.148,0.827,0.375,0.651,0.608,��,9.9,��
2021/06/11,19:40,0.636,0.943,0.595,1.148,0.828,0.376,0.652,0.609,��,8.9,��
2021/06/11,19:50,0.635,0.945,0.596,1.150,0.828,0.375,0.652,0.608,��,8.5,��
2021/06/11,20:00,0.634,0.945,0.594,1.148,0.828,0.375,0.651,0.608,��,8.4,��
2021/06/11,20:10,0.633,0.946,0.595,1.149,0.826,0.376,0.652,0.609,��,7.3,��
2021/06/11,20:20,0.633,0.947,0.596,1.149,0.828,0.376,0.652,0.610,��,7.5,��
2021/06/11,20:30,0.634,0.946,0.595,1.148,0.829,0.376,0.653,0.608,��,7.3,��
2021/06/11,20:40,0.633,0.945,0.595,1.151,0.827,0.376,0.651,0.607,��,8.3,��
2021/06/11,20:50,0.635,0.946,0.595,1.152,0.830,0.374,0.653,0.609,��,8.3,��
2021/06/11,21:00,0.634,0.946,0.594,1.150,0.826,0.375,0.652,0.609,��쐼,8.1,��
2021/06/11,21:10,0.635,0.947,0.593,1.151,0.826,0.376,0.651,0.608,��,8.9,��
2021/06/11,21:20,0.634,0.946,0.595,1.148,0.829,0.375,0.651,0.608,��,8.1,��
2021/06/11,21:30,0.633,0.944,0.594,1.149,0.827,0.375,0.652,0.608,��,9.3,��
2021/06/11,21:40,0.634,0.946,0.594,1.148,0.828,0.375,0.651,0.608,��,9.0,��
2021/06/11,21:50,0.633,0.945,0.596,1.149,0.827,0.375,0.651,0.609,��,9.2,��
2021/06/11,22:00,0.633,0.946,0.594,1.150,0.827,0.376,0.651,0.609,��,8.9,��
2021/06/11,22:10,0.634,0.947,0.595,1.148,0.825,0.374,0.651,0.608,��,10.2,��
2021/06/11,22:20,0.632,0.947,0.595,1.151,0.827,0.373,0.652,0.610,��,10.8,��
2021/06/11,22:30,0.635,0.946,0.595,1.149,0.828,0.373,0.650,0.608,��,10.8,��
2021/06/11,22:40,0.633,0.948,0.595,1.149,0.825,0.374,0.652,0.609,��,9.9,��
2021/06/11,22:50,0.635,0.948,0.594,1.149,0.827,0.374,0.653,0.608,��,10.0,��
2021/06/11,23:00,0.635,0.947,0.595,1.150,0.828,0.374,0.653,0.608,��,8.8,��
2021/06/11,23:10,0.635,0.947,0.596,1.151,0.827,0.374,0.652,0.608,��,8.6,��
2021/06/11,23:20,0.633,0.947,0.594,1.151,0.829,0.374,0.651,0.609,��,8.8,��
2021/06/11,23:30,0.633,0.947,0.596,1.148,0.827,0.375,0.651,0.608,��,10.2,��
2021/06/11,23:40,0.635,0.947,0.596,1.151,0.828,0.374,0.651,0.609,��,10.2,��
2021/06/11,23:50,0.634,0.945,0.593,1.151,0.828,0.374,0.651,0.607,��,12.1,��
